Regional Weather Roundup
Issued by NWS

Home | Current Version | Previous Version | Graphics & Text | Print | Product List | Glossary On
Versions: 1 2 3 4 5 6 7 8 9 10 11 12 13 14 15 16 17 18 19 20 21 22 23 24 25 26 27
000
ASUS45 KSLC 241610
RWRUT

UTAH REGIONAL WEATHER ROUNDUP
NATIONAL WEATHER SERVICE SALT LAKE CITY UT
1000 AM MDT FRI MAR 24 2017

UTZ001>011-023>025-241700-

NORTHERN UTAH

CITY           SKY/WX    TMP DP  RH WIND       PRES   REMARKS
BRIGHAM CITY     N/A     41  32  72 CALM      30.23S
HILL AFB       SUNNY     41  32  70 E13       30.22S
LOGAN          SUNNY     40  34  79 CALM      30.22S
OGDEN          SUNNY     42  34  73 VRB3      30.22S
SALT LAKE CITY MOSUNNY   44  34  67 SE8       30.22S
WENDOVER       SUNNY     41  27  57 NE10      30.20S
HEBER CITY     SUNNY     39  30  70 CALM      30.24R

$$

UTZ011>015-024>027-241700-

CENTRAL/NORTHEAST UTAH

CITY           SKY/WX    TMP DP  RH WIND       PRES   REMARKS
PROVO AIRPORT  SUNNY     43  35  73 SE7       30.27R
MOAB/CANYONLAN SUNNY     52  32  46 NW8       30.17R
DELTA          SUNNY     37  34  87 CALM      30.25S
PRICE          SUNNY     45  27  49 CALM      30.20R
RICHFIELD      SUNNY     39  32  75 S3        30.29S
ROOSEVELT      SUNNY     45  34  65 SE3       30.23R
VERNAL         CLOUDY    47  32  56 SW5       30.21R

$$

UTZ013>016-019>022-027-241700-

SOUTHERN UTAH

CITY           SKY/WX    TMP DP  RH WIND       PRES   REMARKS
BRYCE CANYON   SUNNY     36  22  56 NW9       30.26R WCI  29
CEDAR CITY     SUNNY     37  29  72 N5        30.24R WCI  33
MILFORD        SUNNY    N/A N/A N/A S9        30.24S
ST GEORGE      SUNNY     46  36  68 CALM      30.26R
HANKSVILLE     SUNNY     50  28  43 W6        30.23R
KANAB          SUNNY     43  34  70 S6        30.29R
BLANDING       SUNNY     49  27  42 W14       30.20R

$$

REGIONAL REPORTS     COLORADO/ARIZONA

CITY           SKY/WX    TMP DP  RH WIND       PRES   REMARKS
CRAIG, CO      SUNNY     45  30  55 N9        30.17R
GRAND JUNCTION MOSUNNY   50  30  46 N17       30.17R
RIFLE, CO      SUNNY     49  30  48 NW15G21   30.14R
MONTROSE, CO   SUNNY     46  31  55 NW17      30.17R
CORTEZ, CO     MOSUNNY   47  32  56 N13G24    30.11R
COLORADO CITY    N/A     45  32  61 CALM      30.27R
PAGE, AZ       SUNNY     51  32  48 N6        30.21R
GRAND CANYON   NOT AVBL
KINGMAN, AZ    SUNNY     52  29  41 CALM      30.23R
FLAGSTAFF, AZ  SUNNY     42  20  41 CALM      30.26R

$$

REGIONAL REPORTS    NEVADA/IDAHO/WYOMING

CITY           SKY/WX    TMP DP  RH WIND       PRES   REMARKS
LAS VEGAS, NV  MOSUNNY   59  34  39 CALM      30.21R
ELY, NY        SUNNY     36  25  64 S9        30.22S WCI  29
ELKO, NV       MOSUNNY   44  28  53 CALM      30.14F
POCATELLO, ID  SUNNY     50  27  40 S13       30.16F
BURLEY, ID     SUNNY     47  27  45 S10       30.12S
FORT BRIDGER,    N/A     38  29  68 W10       30.25R WCI  32
EVANSTON, WY   SUNNY     32  27  81 SW6       30.23R WCI  26
ROCK SPRINGS,  CLOUDY    39  33  79 SW13      30.22R WCI  31

$$




USA.gov is the U.S. government's official web portal to all federal, state and local government web resources and services.